Theta_e
322 321 318 321 318 317 318 319 318 320 319 319 319 322 323 323 324 324 323 323 322 322 321 321 321 320 321 322 322 321 321 321 322 321 321 321 320 319 315 317 320 322 325 327 329 331 332 332 333 333 333 333 334 334 334 335 334 333 333 334 334 333 333 333 332 333 334 333 333 334 332 332 332 331 332 332 331 330 330 330 329 329 329 329 328
324 320 321 321 318 317 319 320 321 320 319 321 319 321 324 324 323 323 322 322 321 322 320 322 322 323 322 321 321 320 321 321 321 320 320 320 320 320 315 316 318 321 322 324 326 328 329 330 331 332 333 333 333 333 333 333 333 334 334 333 333 334 333 333 333 333 333 332 333 333 333 333 333 332 333 332 331 332 332 331 330 330 328 329 329
324 322 320 322 321 321 322 319 321 323 320 321 320 322 322 323 323 323 323 322 322 321 320 321 322 322 322 321 321 320 320 320 320 319 319 319 319 319 319 315 316 318 319 322 324 326 327 328 329 331 331 333 332 332 332 332 333 333 333 334 334 333 333 334 333 332 332 332 333 333 333 334 333 333 333 333 331 330 330 330 330 329 330 330 331
323 322 323 322 323 322 321 321 324 323 321 322 322 321 322 322 320 319 319 319 321 321 321 320 321 321 321 320 320 319 319 319 318 318 318 319 318 318 318 317 315 315 316 318 321 323 324 325 327 329 330 330 331 332 332 333 334 333 332 333 334 333 333 332 332 331 332 333 333 333 333 331 331 331 332 332 331 332 333 331 330 331 330 331 332
323 323 321 323 322 322 322 321 322 322 321 321 321 319 319 320 321 318 318 319 319 321 321 320 320 320 319 319 319 319 319 319 319 319 318 318 318 317 317 317 318 313 313 315 317 320 321 323 325 326 327 328 329 331 331 332 332 332 332 332 332 332 332 331 331 331 332 333 333 332 331 330 330 330 331 331 331 331 331 332 331 331 330 331 331
323 321 322 322 321 321 322 322 321 320 319 319 320 320 321 321 322 320 319 319 320 320 319 320 320 319 319 319 319 319 319 319 320 319 318 317 317 317 316 317 317 317 318 314 314 315 318 321 324 323 325 326 327 327 330 330 331 332 331 331 331 331 332 331 331 331 331 332 331 330 330 330 330 329 330 330 329 329 329 330 330 331 332 332 332
322 323 322 322 322 322 320 322 322 321 321 320 321 321 321 321 321 322 321 320 320 320 319 319 318 319 319 319 319 320 321 321 320 319 318 317 317 317 316 316 317 317 317 317 312 314 315 318 320 321 322 323 324 326 329 329 330 330 329 330 330 330 330 330 329 330 330 329 329 329 329 330 329 329 329 329 329 330 329 329 329 329 329 330 330
322 322 323 322 323 323 325 324 323 324 323 322 321 323 322 322 321 321 321 322 320 321 319 318 317 317 319 320 320 320 321 321 320 319 317 316 317 316 316 316 316 316 312 316 316 314 313 313 316 319 319 319 321 325 326 327 328 328 328 327 328 330 329 327 328 329 329 328 328 328 328 328 328 328 328 328 327 327 327 328 328 328 329 329 329
323 323 325 323 323 325 327 326 324 326 326 324 323 323 323 322 322 320 320 320 319 319 319 320 319 318 320 320 321 321 321 321 319 317 316 317 317 316 316 316 315 310 316 315 316 316 313 312 313 315 314 315 319 322 323 324 324 325 324 325 327 329 327 325 328 328 328 327 325 325 326 326 325 325 326 327 327 327 327 328 328 328 328 327 328
324 324 326 325 326 327 328 327 326 325 324 323 324 321 321 321 322 319 320 319 320 320 320 320 320 320 320 321 321 321 320 320 317 313 316 316 316 316 315 315 316 316 315 316 315 315 315 313 311 312 311 311 315 319 321 321 322 323 325 325 326 326 326 326 324 323 324 324 324 325 322 321 322 325 323 322 322 322 323 324 326 326 327 327 328
326 326 326 326 326 326 327 327 328 327 323 321 322 322 320 319 320 320 317 318 319 319 320 318 317 319 319 320 320 320 320 317 315 316 316 316 315 314 315 316 315 316 316 315 315 315 314 314 314 314 314 310 313 316 317 318 318 320 323 323 323 323 322 322 320 320 320 320 320 320 321 322 323 322 321 321 321 322 322 321 321 322 322 321 321
328 327 327 327 327 327 327 328 325 325 324 323 322 323 323 320 321 320 321 319 314 316 318 318 319 319 319 320 320 319 319 315 316 315 317 317 315 315 315 315 316 316 316 314 314 314 314 314 312 313 313 311 310 311 312 314 314 317 321 322 322 322 321 320 319 319 318 318 318 319 319 321 320 320 320 319 320 319 320 320 321 321 321 320 321
327 328 327 324 327 329 328 327 324 324 324 325 324 323 320 320 318 316 318 318 319 320 320 318 317 317 320 319 319 320 315 314 314 316 317 316 315 315 314 315 316 315 314 313 313 312 312 312 312 312 312 312 311 309 310 310 309 315 318 320 321 321 320 319 319 319 318 318 318 317 317 316 315 315 316 316 317 318 319 320 320 321 321 321 321
326 327 327 327 326 326 327 327 324 322 323 322 319 316 317 317 317 319 317 318 319 318 318 319 316 313 311 312 314 316 314 313 312 316 316 316 314 314 313 313 314 313 313 312 310 310 310 311 311 310 311 310 311 311 311 310 310 312 316 317 318 320 319 318 319 318 318 318 315 314 314 314 313 314 314 314 315 315 315 316 316 316 317 317 318
329 327 326 326 327 327 327 326 322 323 322 322 321 321 320 319 318 319 319 316 317 316 318 318 314 314 313 311 309 308 312 314 312 314 314 314 313 313 312 313 311 312 311 308 307 307 308 309 309 309 309 310 310 310 310 307 307 305 310 313 315 318 319 318 318 318 317 313 312 312 312 312 314 315 315 316 315 315 315 316 317 317 317 318 318
330 328 327 328 327 327 327 323 321 323 324 323 322 322 320 319 318 318 319 317 317 317 314 316 316 316 309 308 308 306 305 309 308 311 312 312 311 311 311 310 310 310 308 305 304 305 306 308 308 308 308 308 308 308 309 309 307 305 305 304 308 315 318 319 319 315 312 312 313 313 313 314 314 314 314 314 314 315 315 316 316 317 317 317 318
330 329 327 327 326 327 326 325 324 323 323 322 321 321 321 320 319 318 318 318 315 316 316 315 315 318 314 310 307 305 305 307 308 306 311 308 309 311 311 309 308 306 304 303 304 304 305 305 306 307 307 306 306 307 308 308 308 308 307 304 307 312 313 313 313 312 312 311 313 313 313 312 313 313 314 315 315 315 316 317 317 316 316 318 317
328 328 327 325 326 326 325 325 324 322 322 321 320 318 318 319 319 319 318 318 317 313 312 312 313 315 315 314 312 307 305 307 305 303 307 306 309 311 310 308 308 303 301 301 302 303 304 304 305 305 305 304 304 306 307 307 306 307 308 308 310 308 308 309 309 310 311 311 312 313 313 313 312 312 314 314 315 315 315 316 316 316 316 316 316
325 326 326 324 325 324 323 322 322 321 319 320 318 317 316 316 315 315 315 315 314 311 310 311 313 312 311 310 310 308 309 306 301 302 297 303 304 306 304 307 303 299 299 300 302 302 303 302 303 303 303 303 303 305 306 306 304 304 305 307 306 304 305 305 306 307 309 311 311 312 312 312 312 313 313 313 314 314 314 314 315 316 316 315 315
323 324 325 324 323 322 322 321 320 319 318 319 317 315 314 313 313 314 313 312 311 312 310 311 311 309 309 307 306 305 305 306 305 300 296 294 295 301 303 301 297 297 298 299 300 301 301 301 301 301 301 302 303 305 306 306 306 306 305 304 304 303 303 303 302 302 304 308 309 310 310 311 311 313 313 312 312 312 312 313 314 314 314 314 314
322 322 321 320 319 320 319 318 318 317 317 316 315 314 314 312 312 314 314 313 313 311 311 309 310 308 307 304 304 302 304 305 301 298 296 294 293 293 293 296 295 296 297 300 300 301 300 299 299 299 300 301 304 305 305 304 304 305 302 301 302 302 303 303 302 301 301 302 302 305 307 309 310 311 311 312 311 310 311 312 312 313 313 313 313
316 316 316 316 316 315 316 316 315 314 312 313 311 310 308 307 306 307 308 308 308 310 308 307 306 304 304 303 301 300 301 300 298 295 296 297 293 292 293 290 290 293 296 297 298 297 298 298 298 300 301 302 303 303 303 303 303 302 298 298 298 300 301 301 301 300 300 300 300 300 302 304 307 309 310 310 310 311 310 311 311 311 312 312 312
311 310 310 310 310 310 310 309 309 308 308 308 307 307 305 304 303 303 303 304 303 302 301 300 301 301 300 300 299 299 298 296 295 295 294 292 291 291 291 292 291 291 296 297 295 296 297 298 298 299 300 301 302 301 301 301 297 296 295 295 296 297 298 298 299 299 299 299 300 300 301 301 301 305 307 309 309 310 310 310 310 310 310 310 310
310 309 308 308 307 306 305 305 305 305 306 306 305 304 303 303 303 302 301 300 300 299 298 297 297 297 298 299 299 299 298 296 296 295 295 293 292 290 290 291 291 292 294 294 295 296 297 297 298 299 299 300 299 300 299 297 295 293 293 294 294 295 296 297 298 298 298 298 298 298 299 300 300 301 302 304 306 308 309 309 309 309 309 309 309
308 308 307 306 306 305 305 304 303 303 303 304 303 303 302 301 300 299 298 298 297 297 296 296 296 297 296 295 295 296 295 296 296 295 295 294 293 289 290 291 288 289 292 292 292 296 295 295 298 299 299 299 298 296 295 294 293 292 293 292 293 294 294 295 297 297 297 298 298 297 297 298 300 300 301 301 302 304 306 308 308 309 308 308 308
307 307 305 303 303 302 301 301 301 301 302 302 302 302 300 298 297 296 296 295 295 295 294 293 293 293 294 293 292 291 292 293 294 294 293 292 290 290 288 289 289 288 290 291 293 290 293 297 299 299 299 296 295 294 293 291 291 291 292 291 291 292 293 293 294 295 296 297 297 296 296 297 297 299 300 301 301 302 302 304 306 307 307 308 308
308 304 302 301 300 300 300 300 300 300 300 300 299 299 297 295 294 294 294 293 292 292 291 291 290 291 291 291 290 289 289 291 292 291 292 291 291 290 289 286 287 288 287 288 289 290 289 293 294 295 295 293 292 291 290 290 290 291 290 290 290 290 291 292 294 296 296 295 295 296 296 296 297 298 298 299 300 300 300 302 303 303 305 306 306
303 300 300 300 298 298 298 298 298 299 298 298 297 297 296 295 293 293 291 291 291 290 289 289 289 289 289 290 290 289 288 289 289 290 290 290 290 290 289 288 286 283 286 285 287 287 288 288 292 293 292 291 290 290 289 289 290 290 289 289 289 289 290 291 294 295 295 294 294 295 295 296 296 297 297 297 297 297 298 300 300 301 301 301 302
300 299 298 298 297 297 296 296 296 296 295 296 295 294 294 293 292 291 289 289 289 288 289 289 289 289 289 289 289 288 288 288 289 289 289 289 289 289 290 288 287 285 283 285 285 284 288 290 287 289 291 290 288 289 289 289 289 288 289 289 289 289 289 291 293 293 293 294 294 294 295 295 295 295 296 296 296 296 297 297 297 297 298 298 298
299 297 297 295 295 294 295 294 293 294 294 293 293 291 291 291 289 289 288 289 288 288 288 288 288 288 287 287 288 287 287 287 287 287 287 288 287 288 288 288 288 286 285 283 284 286 286 288 288 286 288 288 288 288 288 288 288 288 288 288 288 288 289 290 290 291 291 292 293 293 294 294 295 295 295 295 295 296 297 297 297 297 297 298 300
296 295 295 293 292 292 292 291 291 291 291 291 290 290 290 289 288 288 287 289 288 287 287 288 287 288 287 286 287 287 287 287 287 287 287 287 287 287 287 288 287 287 285 284 282 286 287 284 286 287 286 287 287 287 288 288 288 288 288 288 288 288 288 288 288 290 291 292 292 293 294 295 295 295 295 295 295 296 296 297 296 295 296 297 298
296 295 293 292 291 291 290 290 290 289 289 289 289 289 289 289 288 288 288 288 287 287 286 287 287 287 287 286 286 286 286 287 286 286 286 286 286 286 286 286 286 286 286 284 282 282 287 285 285 286 287 286 287 286 286 287 288 287 288 287 287 287 287 287 288 289 289 290 291 292 293 294 294 294 295 295 295 296 296 296 296 296 295 296 296
293 292 292 291 291 290 290 290 289 289 288 288 288 288 288 288 288 288 287 287 287 286 286 286 286 286 286 285 285 285 285 285 286 286 285 285 285 285 285 285 285 285 284 282 281 281 284 286 285 285 286 286 285 286 285 286 286 287 287 287 287 286 286 286 286 287 288 289 290 291 293 293 293 293 293 293 293 294 294 295 295 295 295 295 295
292 292 291 290 290 289 289 288 288 288 287 287 287 288 288 287 287 287 287 287 286 286 286 285 285 286 286 285 284 284 285 285 285 285 285 285 285 284 284 284 284 284 285 282 282 281 280 283 284 286 285 286 283 286 285 284 285 286 285 285 286 286 286 286 286 286 287 288 290 291 292 292 293 292 293 292 293 292 294 296 294 295 295 294 293
291 291 290 289 288 288 288 288 287 287 287 287 287 287 287 287 286 286 286 286 286 286 285 285 285 285 285 284 284 284 284 284 284 284 284 284 284 284 283 284 283 283 284 284 282 280 280 280 283 283 283 284 284 284 285 285 285 285 284 284 284 285 286 286 285 286 287 289 291 291 292 292 292 292 292 292 292 293 293 293 293 293 293 293 293
290 289 289 288 288 287 287 286 287 286 286 286 286 287 287 287 286 286 285 286 286 285 285 284 284 284 284 284 283 283 284 283 283 283 283 283 283 283 283 283 283 283 283 283 283 281 280 279 282 282 283 283 283 285 285 285 284 284 284 284 285 285 285 285 286 286 287 289 290 290 291 291 291 291 292 291 292 292 292 292 292 292 292 292 292
288 287 287 287 287 287 286 286 286 286 286 286 285 285 286 286 286 285 285 285 285 285 285 284 284 284 284 283 283 283 283 282 282 282 282 282 283 283 282 283 283 283 283 283 282 282 281 280 281 283 283 283 284 284 285 283 283 283 283 283 284 284 284 285 286 286 287 288 288 289 289 290 290 291 291 291 291 292 292 292 292 292 291 291 291
287 287 286 286 286 286 286 286 286 285 285 286 285 285 285 285 285 285 285 285 285 284 284 284 284 284 283 283 283 283 282 282 282 282 282 282 282 282 282 282 282 282 282 282 283 282 281 281 281 280 282 282 282 283 284 283 281 281 281 283 283 284 284 283 284 285 286 287 286 286 287 288 288 289 290 290 290 291 290 290 290 290 289 289 289
287 286 286 285 286 286 285 285 285 285 285 285 285 285 285 285 285 285 285 284 284 284 284 284 283 283 283 283 282 283 282 282 282 282 282 282 282 282 282 282 282 281 281 281 281 281 280 280 280 281 281 282 282 280 283 283 282 282 280 280 280 283 283 282 282 284 286 286 287 287 287 287 287 286 288 288 289 289 289 289 289 289 288 288 289
286 285 285 285 284 284 284 284 284 284 284 284 285 285 285 285 285 285 284 284 284 283 283 283 283 283 282 282 282 282 282 282 282 282 282 282 282 281 282 282 281 281 281 281 281 280 280 280 279 279 280 280 281 282 282 282 280 280 281 280 278 279 280 282 283 283 284 284 284 284 286 286 285 286 286 286 286 287 287 287 286 286 286 288 290
285 285 285 284 283 283 283 283 284 284 285 285 285 285 285 285 285 284 284 283 283 282 282 282 282 282 281 282 282 282 282 282 281 282 282 282 282 280 281 282 281 281 281 281 280 280 279 279 279 280 279 279 280 279 279 279 278 278 280 281 279 280 281 281 282 284 284 283 283 283 282 283 282 282 282 282 284 285 284 285 285 285 288 292 292
284 283 283 283 283 283 282 283 284 285 285 285 284 286 286 285 285 284 283 283 282 282 281 281 281 281 281 281 281 281 281 280 280 281 281 281 282 282 282 282 281 281 281 280 279 279 279 278 278 278 277 277 278 279 278 279 280 281 280 279 278 279 280 280 281 283 284 283 280 279 280 282 281 281 282 281 283 283 282 282 283 288 291 293 292
283 282 282 282 282 282 282 283 284 285 285 286 287 288 287 285 284 283 283 282 282 281 281 280 279 279 280 280 280 280 280 280 280 280 280 281 281 282 282 283 283 282 280 279 279 279 278 278 278 278 277 277 278 279 279 280 280 279 279 279 279 279 278 277 276 279 284 281 279 278 278 281 281 280 281 281 281 281 282 282 287 291 291 292 291
282 282 282 282 281 281 282 283 284 285 286 288 289 288 287 285 283 282 282 282 281 281 280 280 280 279 279 279 279 279 279 279 279 279 279 280 281 282 283 283 282 282 282 281 279 278 278 277 277 277 277 277 278 279 279 279 278 278 279 279 279 278 277 276 276 275 279 281 278 277 277 280 280 280 279 279 280 280 282 285 288 291 292 291 291
281 281 281 281 281 281 281 282 283 284 286 289 289 287 286 285 284 282 281 281 280 280 280 279 279 279 279 279 278 278 278 278 278 278 279 280 281 282 282 282 282 281 282 282 282 281 280 278 277 277 278 278 278 279 279 279 280 278 279 278 278 278 277 275 276 276 278 280 278 276 274 277 280 278 277 279 279 280 282 284 287 291 292 291 291
281 280 280 280 280 280 281 282 283 284 286 288 288 287 285 285 284 282 281 280 280 279 279 279 279 279 278 278 277 277 278 278 278 278 280 281 282 282 281 281 280 280 281 281 281 281 281 280 279 278 280 281 278 279 280 281 279 278 278 277 277 275 275 275 277 278 279 280 276 275 273 276 278 277 276 278 279 280 281 283 286 290 291 291 290
280 280 279 279 279 279 280 281 282 283 285 288 288 286 285 284 283 281 280 280 279 279 279 279 279 278 278 278 277 277 277 278 278 280 281 281 281 281 280 279 279 280 280 280 280 280 280 281 281 281 280 280 280 280 281 281 280 280 279 277 276 276 277 278 278 278 277 278 277 275 272 275 277 275 276 277 278 279 281 281 285 288 290 290 290
279 279 279 279 278 278 280 281 282 282 285 287 287 286 285 284 282 280 279 279 278 278 278 278 278 278 278 278 277 277 277 278 278 281 282 282 281 279 278 278 279 279 279 280 281 282 282 282 281 281 280 280 282 281 281 281 280 279 278 278 278 277 275 273 272 274 274 276 277 275 273 273 276 274 275 277 278 278 279 278 281 286 288 289 289
278 278 278 278 278 278 278 280 281 282 283 286 286 285 284 283 280 279 279 278 278 278 278 278 277 277 277 277 277 277 277 277 279 282 283 282 279 278 277 277 277 277 277 279 281 282 282 282 281 281 281 282 282 282 282 281 280 279 277 275 274 274 272 270 271 271 272 274 276 276 273 272 274 274 274 276 276 278 277 276 278 282 285 287 288
278 277 277 277 277 277 278 278 280 281 281 284 286 285 283 282 279 278 278 277 277 277 277 277 277 277 277 277 277 277 277 278 281 282 282 281 278 278 277 276 275 275 277 279 280 280 280 280 279 280 280 280 280 280 279 280 280 279 276 273 274 273 271 271 269 270 271 273 275 276 272 272 274 274 273 275 276 279 277 276 276 277 281 282 285
277 276 276 276 275 275 276 277 279 279 280 283 285 284 283 281 279 278 277 277 277 277 276 276 277 276 276 277 277 278 279 280 281 281 281 280 278 278 277 276 275 275 277 278 277 276 276 275 276 277 278 278 277 277 277 278 278 278 277 275 274 272 270 270 270 270 269 271 274 276 271 272 272 273 273 271 272 276 277 275 275 275 276 277 278
Wind_Speed
1 2 1 2 1 1 1 1 0 0 0 1 1 2 1 1 1 2 2 2 2 2 2 2 1 2 2 3 3 3 3 3 3 4 4 4 4 6 9 9 10 12 13 14 15 16 16 16 16 16 16 17 17 18 19 19 20 19 19 19 19 19 19 18 18 18 17 18 18 17 18 21 20 17 19 22 23 23 23 23 23 23 22 21 22
2 2 2 2 2 1 1 1 0 0 0 1 0 0 1 1 1 2 2 2 2 1 2 3 3 2 1 2 3 3 3 3 4 4 5 4 4 5 9 8 10 12 13 14 15 15 15 15 15 15 16 16 17 17 17 18 17 18 20 19 19 19 19 17 17 17 16 17 18 18 19 18 18 18 19 21 23 21 23 23 26 26 24 24 24
2 2 2 1 1 1 1 0 1 1 1 2 1 2 1 2 2 2 2 2 3 2 2 3 3 3 2 3 3 3 4 3 4 4 5 5 5 5 7 8 9 11 12 13 14 14 14 14 15 15 15 16 16 17 17 17 17 17 17 18 19 19 20 19 19 19 19 19 19 19 19 18 16 16 17 19 22 21 22 24 27 23 23 24 24
3 2 2 2 2 2 1 1 2 1 2 2 2 2 2 2 2 2 2 2 3 3 2 2 3 3 3 4 3 3 4 4 4 4 5 5 5 5 5 6 8 9 11 12 12 13 13 14 14 14 15 15 16 17 17 18 19 18 18 19 19 19 20 20 20 20 20 20 20 19 19 20 19 19 18 19 20 20 19 22 25 23 24 27 24
3 3 3 2 2 2 2 2 2 1 1 2 2 1 1 2 2 2 2 2 2 3 2 2 3 3 3 4 3 4 3 4 4 4 4 5 4 5 4 5 5 8 8 8 11 11 12 13 13 14 15 15 16 16 17 18 18 18 18 19 20 20 21 20 20 20 20 21 21 20 20 20 21 20 20 21 22 22 22 21 22 23 24 25 25
3 3 2 2 1 2 2 2 2 2 1 1 2 2 2 2 2 1 2 1 2 3 3 3 2 2 3 3 3 4 4 4 4 4 4 4 4 4 4 4 4 4 5 8 7 9 11 12 13 14 14 15 16 16 17 18 19 19 19 19 20 20 20 21 21 22 22 22 22 22 21 22 21 22 22 21 22 22 22 22 23 23 23 22 22
3 4 3 3 3 3 3 4 3 3 3 3 2 1 1 3 1 2 2 1 2 2 2 2 4 5 5 3 4 4 4 4 4 3 3 4 4 3 3 4 4 4 4 4 6 7 10 11 12 13 14 15 15 16 17 18 19 19 19 19 19 20 20 20 21 21 22 22 22 22 22 23 23 24 25 24 23 23 22 22 23 24 25 25 25
4 3 3 3 2 3 4 3 3 2 2 1 2 3 2 2 1 1 2 3 2 3 1 3 3 4 5 4 4 4 5 4 4 4 3 4 3 4 3 4 4 4 5 4 4 6 8 10 12 13 14 15 15 16 18 19 19 20 19 19 19 19 20 20 21 21 21 21 21 20 21 21 22 23 24 24 25 25 26 26 25 24 25 26 25
4 4 3 3 3 5 5 3 2 2 2 1 2 2 1 2 1 1 1 3 2 4 3 1 3 4 5 6 5 5 5 4 4 4 4 3 4 3 4 4 4 5 3 4 4 5 8 9 10 12 12 13 15 16 18 19 19 19 18 18 19 19 20 20 20 20 21 21 21 21 21 21 22 23 23 24 24 25 25 25 25 25 25 26 27
4 4 3 3 4 4 3 4 3 2 1 2 2 0 1 2 2 0 1 2 2 3 4 4 3 4 5 6 6 4 4 3 3 3 2 4 4 4 4 3 4 4 4 4 4 5 5 7 8 8 9 10 14 15 17 17 18 18 18 17 18 19 19 19 19 19 19 19 19 20 21 21 21 22 23 23 23 24 25 26 27 27 27 28 28
5 5 5 5 4 4 3 4 3 4 4 3 3 1 1 1 1 2 2 2 3 2 3 3 3 4 5 7 5 5 4 2 2 1 2 3 3 4 3 3 4 4 4 5 5 5 6 6 6 6 7 10 12 14 15 16 16 17 17 17 18 18 18 18 19 19 19 19 21 21 21 22 23 23 23 23 24 24 24 25 26 26 27 27 29
6 6 6 6 5 5 5 4 2 2 2 3 4 1 1 1 2 3 3 1 3 3 1 2 3 5 5 5 4 4 3 3 1 2 4 4 3 2 3 4 3 5 5 5 5 6 6 6 6 6 6 9 10 11 13 14 14 15 17 18 18 18 19 19 19 20 20 21 22 22 23 24 24 24 25 25 25 26 26 26 26 27 28 28 28
8 7 7 6 5 4 5 4 3 3 3 4 2 1 1 2 1 1 1 2 1 0 1 2 3 5 4 4 4 3 2 0 2 4 7 2 2 3 3 4 5 6 6 5 6 7 6 6 6 6 6 6 8 10 10 11 10 14 16 17 18 19 19 20 20 21 21 21 22 23 23 24 25 26 25 26 26 26 27 27 28 29 28 29 29
5 4 4 5 5 5 4 3 3 4 4 2 2 2 3 2 2 2 2 0 1 2 3 4 3 5 6 6 1 2 2 2 3 7 5 2 2 4 3 3 5 5 5 5 6 6 6 6 5 6 6 6 6 6 7 8 9 14 16 16 18 19 20 20 21 22 22 22 24 25 26 26 26 26 26 26 27 27 28 28 29 30 30 30 31
4 6 6 6 7 6 5 4 3 3 2 3 3 3 3 3 3 2 2 2 0 2 3 4 2 4 1 3 4 5 2 3 1 4 1 2 3 3 2 3 6 5 4 6 6 7 6 5 6 5 6 6 6 5 6 7 8 12 13 16 17 18 19 20 21 22 23 23 25 26 26 25 25 25 25 26 27 27 28 28 29 30 31 31 31
7 6 6 6 5 5 3 3 4 4 4 3 3 3 2 2 3 2 4 3 2 2 3 3 2 2 3 2 2 1 5 3 9 5 2 2 1 2 2 4 4 4 4 6 6 6 7 6 6 5 5 6 5 6 5 5 9 10 11 12 16 17 18 19 20 22 25 27 27 26 25 25 25 26 26 27 27 29 29 30 31 31 32 33 33
6 5 5 5 4 4 4 4 4 4 4 4 3 3 3 3 5 5 4 3 3 2 3 3 2 1 1 1 1 0 1 4 7 5 4 6 5 4 2 3 4 6 6 6 5 5 5 6 6 6 6 6 5 5 5 6 6 7 8 9 12 16 18 19 22 25 27 27 27 26 26 25 26 27 28 29 30 30 30 30 31 32 33 31 32
3 4 4 4 4 5 5 5 5 4 4 4 4 4 4 4 4 5 5 2 3 3 2 2 3 4 4 2 1 1 2 2 2 3 5 6 5 6 7 5 5 9 9 7 8 8 6 5 5 7 5 5 5 5 5 5 6 6 7 9 16 18 19 22 25 27 28 28 27 27 27 27 28 28 29 30 31 31 31 31 32 32 32 33 33
3 4 4 4 4 4 4 4 4 4 4 6 6 5 4 4 3 4 4 4 4 3 3 3 3 5 5 5 5 5 2 1 1 3 5 3 5 5 5 6 8 10 9 9 9 8 8 8 9 8 7 5 5 4 4 5 7 7 8 14 19 20 23 25 26 27 28 28 28 28 29 29 29 30 30 30 31 31 32 33 32 33 33 33 34
4 3 6 7 7 6 6 5 5 5 5 4 5 5 4 3 3 5 4 3 3 3 4 2 1 2 3 3 4 4 4 4 5 1 3 5 4 1 1 6 8 5 6 8 8 8 9 10 8 8 7 7 6 6 6 7 7 9 9 20 23 24 26 27 27 26 27 27 28 29 29 30 30 31 32 32 33 33 33 32 34 33 34 34 34
5 6 5 5 5 6 6 5 5 5 4 5 4 4 4 4 3 2 3 3 2 3 3 3 2 1 0 2 2 4 4 5 6 2 2 2 5 3 7 3 3 4 3 4 4 5 8 9 7 7 6 6 6 6 7 7 7 7 9 20 24 26 27 27 26 25 25 26 27 29 29 29 30 32 32 33 33 34 33 34 33 35 34 36 36
5 4 5 4 5 5 5 6 5 4 4 5 5 4 3 4 4 4 5 5 4 4 4 4 4 4 3 3 3 3 3 2 3 3 1 2 4 7 6 9 9 3 5 2 3 8 7 6 6 5 5 4 5 5 6 6 7 7 10 19 23 24 24 24 25 25 25 26 27 27 28 29 30 32 32 32 33 32 33 33 34 34 36 35 37
5 4 3 5 4 4 5 5 5 5 5 5 4 5 5 5 5 7 6 6 5 6 6 6 5 5 5 4 4 3 3 2 1 2 2 1 4 5 6 4 7 11 1 3 8 8 6 5 4 4 4 4 4 5 5 6 8 12 18 19 22 23 23 24 25 25 25 26 27 28 29 30 30 31 32 32 33 34 33 34 34 35 35 36 36
4 4 4 5 4 5 5 6 5 5 5 5 5 6 6 6 5 5 6 6 6 6 6 6 7 6 7 6 5 5 4 4 2 1 1 2 2 6 7 7 5 5 6 8 7 5 5 6 5 4 3 3 5 3 6 8 9 15 15 17 19 21 22 23 24 25 25 26 28 28 29 30 31 31 31 32 33 33 34 34 35 35 35 36 37
5 5 6 7 6 6 5 5 4 5 6 7 6 6 6 6 7 7 6 6 5 6 6 6 6 6 6 4 5 5 5 3 2 1 1 1 1 4 3 3 5 8 4 3 3 3 5 4 3 2 3 4 3 6 7 8 9 13 16 15 19 20 23 24 25 25 26 27 28 28 29 30 31 31 31 32 33 33 34 34 35 35 35 36 37
8 7 6 6 6 6 6 6 5 6 6 6 6 6 7 7 7 7 7 6 7 8 8 7 6 6 5 5 5 5 4 3 3 2 2 1 2 3 6 4 5 6 4 1 2 3 2 1 4 3 2 4 5 6 9 11 12 15 17 16 16 20 22 23 24 24 26 26 28 28 29 29 30 31 31 32 33 33 34 34 35 35 36 36 36
8 6 7 6 7 6 5 6 6 6 7 7 5 6 7 7 7 8 6 5 6 7 7 7 6 6 6 5 5 5 4 3 3 3 3 2 1 2 3 8 6 4 2 3 4 4 5 3 2 4 4 4 7 9 10 10 12 14 15 14 12 17 18 21 23 25 25 26 27 28 29 29 30 30 31 32 33 33 34 34 35 35 36 36 37
6 7 6 7 7 7 6 6 6 7 7 7 7 6 6 7 7 6 7 4 6 7 6 6 6 6 6 5 5 4 4 4 4 4 3 3 1 1 2 1 4 9 7 2 2 5 1 2 2 3 3 7 7 7 10 12 9 14 15 11 12 12 16 20 24 25 25 26 27 28 29 29 30 31 31 32 32 33 33 34 35 35 36 37 37
7 5 7 7 9 8 7 7 6 6 6 6 6 6 6 6 5 6 6 5 5 6 4 5 5 5 5 5 5 4 3 3 3 3 3 3 3 2 1 1 1 2 6 7 6 2 3 2 3 2 4 8 9 9 10 9 11 14 12 12 12 12 15 23 24 25 25 26 27 28 29 31 31 32 32 32 33 33 34 35 35 36 36 36 37
7 7 8 9 9 7 8 7 6 7 7 7 8 7 7 5 5 5 5 5 7 5 4 5 5 5 6 5 4 5 3 3 3 3 3 3 3 2 2 1 0 0 2 5 9 0 4 0 1 5 7 9 9 11 8 10 12 14 12 12 11 12 21 24 22 22 24 26 28 28 30 32 31 31 32 32 33 34 35 35 37 37 37 37 38
8 8 9 9 9 7 8 8 7 8 8 8 8 8 7 6 5 6 5 5 7 7 4 5 4 5 6 7 4 4 3 3 3 3 3 2 2 1 1 1 1 1 2 3 6 3 4 9 4 3 10 13 11 10 8 9 11 14 13 12 12 14 19 18 20 22 24 27 28 29 29 31 32 32 33 34 34 35 35 36 37 38 37 38 38
7 9 9 10 10 9 7 8 8 8 8 7 7 8 7 6 6 6 5 6 8 7 5 4 4 5 6 7 5 4 3 3 3 3 3 2 2 2 2 1 1 1 2 4 6 13 2 6 9 7 8 12 12 12 16 12 8 12 13 13 15 17 13 13 16 20 24 29 30 29 29 30 32 34 33 34 36 36 36 37 38 39 39 38 38
9 9 10 10 10 9 9 8 9 9 9 8 6 7 7 7 5 6 6 7 8 6 5 6 4 5 6 7 5 4 2 3 3 2 3 2 2 2 2 1 1 1 2 4 6 12 10 4 6 8 10 11 11 10 14 15 16 14 13 13 15 13 12 13 14 18 21 27 30 32 31 32 32 33 34 33 34 35 36 37 37 38 38 38 37
10 11 11 9 9 9 9 9 8 8 8 8 7 7 8 8 7 4 6 7 8 6 5 6 4 3 5 6 5 4 2 4 4 3 3 2 2 2 2 2 2 2 2 3 6 8 15 11 6 7 7 6 11 11 11 15 17 17 19 17 14 14 12 13 14 14 21 26 32 32 31 31 31 33 33 34 34 35 36 37 36 36 37 38 38
7 10 11 10 10 9 9 9 9 8 8 8 6 7 8 9 8 6 5 6 7 7 7 5 4 4 5 5 5 4 2 4 4 3 2 3 2 2 3 2 2 3 3 4 7 10 12 14 10 9 10 9 9 12 13 11 12 14 17 17 17 15 13 14 16 15 18 26 30 32 32 31 30 31 32 34 35 35 36 36 36 36 37 38 39
11 8 10 10 10 9 10 9 9 9 8 7 6 6 8 9 8 8 6 6 6 6 6 5 4 4 5 5 4 3 3 4 4 3 2 2 2 2 2 3 4 5 5 5 6 8 11 13 12 10 10 13 12 11 11 11 12 14 14 15 15 14 15 14 15 16 20 29 31 30 28 29 31 31 32 34 35 35 36 36 37 37 38 38 38
10 11 8 8 9 10 10 11 10 9 8 8 8 7 6 6 8 7 7 7 6 6 5 5 4 5 4 5 4 3 3 4 3 3 2 3 2 3 5 5 5 6 6 6 7 7 10 13 15 12 10 11 11 11 9 13 16 16 17 16 15 17 17 16 13 14 20 30 28 24 23 26 29 33 35 33 35 35 35 36 37 37 37 37 36
10 10 11 8 9 10 9 9 9 9 8 8 8 8 7 7 7 7 7 7 6 5 5 4 4 4 4 4 4 3 4 4 4 3 3 3 3 5 6 6 6 6 7 7 7 8 9 11 12 16 13 13 14 12 10 12 15 17 17 18 18 16 17 18 18 12 12 11 17 17 17 20 27 32 33 32 34 35 34 35 36 36 36 36 36
12 11 9 9 7 9 9 9 9 8 8 7 8 8 7 7 8 8 7 6 6 5 5 5 4 4 4 4 4 4 4 4 3 3 3 5 5 5 6 6 6 7 7 7 7 8 9 11 12 12 14 12 12 15 13 14 16 13 15 17 19 16 16 16 20 19 16 18 19 23 23 25 28 25 27 30 31 32 34 36 37 36 35 35 35
11 11 10 10 8 8 9 9 7 7 8 8 7 7 7 7 7 7 6 7 7 6 5 4 4 4 4 4 4 4 4 3 3 3 4 4 4 4 5 5 6 7 7 8 8 9 9 10 11 12 11 13 13 12 13 15 15 14 13 16 19 19 19 20 16 17 17 16 18 18 18 21 22 24 28 27 27 31 34 33 34 37 34 36 38
8 9 8 9 11 10 8 8 7 6 7 7 7 7 8 7 6 7 7 7 7 6 5 5 4 3 3 4 3 4 5 5 6 5 5 4 3 4 5 5 6 7 7 8 8 9 9 9 10 10 12 12 11 14 16 15 15 17 18 15 15 16 17 18 17 9 10 17 17 18 16 16 17 17 17 17 19 26 26 32 29 34 43 35 26
9 9 8 9 9 10 10 8 7 7 6 4 7 9 7 7 7 6 6 6 6 6 6 5 4 4 4 3 3 5 5 5 5 6 6 6 5 4 4 5 7 7 7 8 8 8 8 9 9 10 12 12 12 13 14 15 15 15 16 16 17 18 16 16 15 12 13 13 17 17 14 14 16 17 16 16 18 20 17 19 22 30 27 31 27
9 9 9 10 9 9 10 9 9 7 6 6 12 12 12 11 7 7 7 6 6 5 5 5 5 4 3 3 3 3 3 3 4 5 6 5 5 6 6 7 7 7 7 8 8 8 8 9 9 9 10 14 14 13 14 15 14 15 15 15 15 16 16 18 18 16 10 15 16 17 16 14 14 16 16 15 17 17 17 18 36 28 32 31 30
9 8 9 10 10 9 8 9 9 8 7 9 14 14 13 11 8 7 6 6 5 5 5 5 4 4 3 3 2 2 2 4 3 2 3 4 5 6 7 8 8 10 10 9 9 9 9 9 10 9 10 12 14 14 13 14 16 16 15 15 14 15 17 17 15 16 15 16 17 16 16 14 13 14 15 14 14 15 18 27 35 26 28 30 31
9 10 10 11 10 9 9 10 9 8 7 12 14 14 13 12 12 8 5 5 6 5 5 5 4 4 3 2 2 1 2 3 2 2 2 3 4 7 8 8 8 9 10 11 11 9 9 9 10 11 11 12 14 13 13 15 16 16 15 14 15 15 14 14 13 15 19 17 16 15 16 14 13 15 15 13 14 14 15 22 32 24 26 27 30
9 9 8 10 10 9 9 10 9 8 7 11 14 14 13 13 12 8 5 6 6 6 5 4 4 4 3 2 1 2 2 3 2 2 4 5 6 7 6 6 6 8 9 10 11 11 10 8 10 11 12 11 12 14 15 14 14 14 13 12 13 16 16 15 15 15 14 11 13 14 14 13 13 14 14 14 13 14 12 23 30 25 25 27 28
10 11 10 10 9 7 9 7 9 8 6 13 14 14 13 13 12 9 6 5 5 5 5 4 4 4 2 2 2 2 2 3 3 5 6 7 7 6 6 6 7 7 7 7 8 8 7 8 9 11 12 11 11 13 13 13 12 12 11 12 14 14 15 15 11 10 11 9 10 10 10 13 13 14 13 14 14 12 10 19 26 27 26 28 28
5 6 5 6 9 8 7 8 9 9 7 14 14 14 13 13 12 6 6 6 6 5 5 4 4 3 2 2 2 2 2 3 4 7 8 7 6 6 6 6 6 6 6 8 11 9 9 9 9 11 11 12 15 13 13 12 11 11 13 12 11 11 14 14 12 10 11 9 9 8 9 12 11 12 14 13 11 10 12 12 20 28 26 27 27
9 8 8 7 6 8 9 8 9 8 7 12 14 14 13 13 8 5 5 5 5 5 4 4 3 3 2 2 2 1 3 3 5 9 10 9 5 6 6 6 6 6 7 6 8 10 11 13 15 16 16 16 15 16 16 18 15 13 11 12 12 12 12 14 14 11 12 11 7 6 9 11 11 12 12 12 11 8 9 11 11 20 26 26 26
9 8 8 8 6 6 9 8 8 9 7 10 15 14 13 12 8 6 5 5 5 4 4 4 3 2 3 3 2 1 3 4 7 9 10 8 5 6 7 7 7 7 7 5 6 6 10 12 14 14 14 13 13 13 14 16 17 14 10 11 12 11 11 11 13 13 12 10 6 8 10 9 11 10 10 10 8 3 7 10 12 13 19 18 25
8 7 7 8 7 5 4 6 7 8 8 9 15 14 14 13 8 5 5 5 6 5 4 3 3 2 1 1 2 2 3 4 8 8 9 8 6 6 7 7 8 8 7 7 7 7 7 8 8 8 8 9 8 8 8 14 14 12 9 10 10 10 10 11 11 12 12 7 5 10 10 10 9 10 7 9 5 3 6 9 11 11 11 11 11
Wind_Direction
196 217 199 227 215 214 227 231 196 216 320 333 335 326 325 350 334 315 325 326 329 315 316 288 260 239 269 304 323 313 312 304 306 309 308 309 309 308 311 311 315 318 320 322 323 324 325 326 325 323 321 319 319 320 320 322 322 319 318 318 317 316 318 319 317 313 308 304 304 301 297 294 293 290 287 284 277 279 278 269 267 268 269 264 260
190 203 200 224 225 196 216 230 238 256 289 287 260 255 288 293 291 299 313 311 300 281 287 302 305 292 289 305 298 297 298 298 311 316 315 312 311 311 320 322 323 325 326 323 323 327 328 328 328 327 327 328 328 326 326 323 322 322 322 322 323 323 324 324 321 318 313 311 309 304 303 298 298 296 288 290 284 277 276 275 271 269 269 270 265
188 190 209 198 199 206 214 225 250 202 190 232 216 227 227 256 276 293 304 307 293 282 282 295 302 308 322 313 304 308 301 309 311 307 309 315 315 316 318 323 326 324 323 324 326 328 330 331 331 332 332 333 333 334 333 330 326 327 327 328 328 328 329 331 330 328 326 324 322 317 312 310 303 294 290 286 285 284 281 278 278 274 269 267 270
185 181 194 197 210 215 219 214 244 223 207 225 223 213 230 250 246 261 262 265 283 281 265 281 295 305 322 306 311 310 312 318 309 310 311 312 316 319 323 326 323 319 318 322 325 328 330 331 332 334 334 334 335 336 335 332 333 333 333 332 333 334 333 333 331 330 329 327 326 326 326 323 321 319 310 306 304 294 286 284 279 273 269 263 263
186 183 186 203 206 220 228 232 246 237 236 248 260 262 241 227 232 206 225 232 261 281 305 293 300 306 307 298 316 305 307 308 303 311 319 317 320 322 322 323 318 316 314 316 323 328 329 330 334 337 336 336 336 336 337 336 335 333 336 336 340 339 337 334 333 332 332 332 332 332 332 331 328 325 320 318 316 312 306 298 290 283 280 279 278
173 181 188 191 219 235 250 251 221 210 219 225 231 204 237 242 251 256 279 284 292 302 308 305 298 283 282 303 294 297 310 304 308 321 317 315 321 321 323 321 323 326 325 324 325 325 329 334 339 341 340 341 340 338 338 341 339 341 340 342 342 339 333 335 338 337 338 339 339 338 336 333 331 328 326 321 318 315 310 306 303 298 294 283 273
188 173 184 196 190 200 204 225 189 173 185 195 226 252 246 251 278 277 284 269 258 275 297 306 318 316 311 307 305 311 297 299 312 322 327 323 320 327 327 328 330 325 328 329 333 337 334 336 339 341 343 344 341 341 343 344 344 346 346 346 343 340 338 342 341 341 342 341 338 334 332 332 331 328 324 322 320 318 315 313 311 307 301 299 297
191 196 187 182 177 187 225 192 248 158 202 190 200 221 221 253 261 264 300 290 323 314 33 307 302 296 299 310 310 308 306 311 327 334 345 327 334 338 338 332 330 331 330 328 332 337 337 336 340 344 347 346 344 345 347 349 350 349 349 347 345 344 344 344 346 344 340 337 339 342 340 336 332 330 329 328 325 322 320 317 314 311 309 307 299
187 187 196 181 184 196 201 174 207 204 206 188 222 246 332 303 277 259 262 298 310 308 303 291 306 299 305 310 303 303 303 319 341 347 329 338 337 340 333 332 325 330 334 338 337 336 341 339 340 344 346 346 346 346 348 350 351 350 349 348 347 347 347 347 345 345 345 347 345 341 337 334 334 331 330 329 327 326 325 322 319 317 315 312 310
186 190 206 195 202 223 183 185 176 221 196 216 230 158 210 228 277 145 184 219 273 292 305 330 332 313 306 301 296 297 298 327 4 342 334 340 348 343 340 323 333 342 340 341 338 339 334 340 341 340 348 345 344 344 347 347 347 347 346 347 347 347 347 346 348 346 346 344 339 337 336 335 332 330 330 329 326 324 323 322 320 319 318 315 316
185 189 194 195 204 224 228 213 194 188 198 206 225 175 144 209 252 237 209 251 274 273 298 316 294 301 300 292 290 291 296 29 3 355 346 3 346 343 321 340 338 344 343 343 343 339 341 341 346 346 347 345 343 343 343 344 345 343 345 348 348 349 348 349 348 347 345 342 340 338 336 333 332 330 328 326 323 321 320 317 315 314 312 311 311
172 184 195 197 199 208 229 218 185 175 195 232 249 231 202 213 245 258 307 283 187 243 260 272 298 306 283 281 283 292 317 40 21 16 4 21 7 347 356 336 347 346 352 347 341 341 339 341 344 344 336 340 338 339 339 341 341 340 346 348 348 348 347 346 345 345 344 342 340 338 336 335 333 330 327 324 322 320 318 315 314 312 310 309 306
176 171 192 194 204 219 227 215 163 180 206 233 241 219 204 209 198 146 232 281 335 218 27 302 340 322 288 293 315 304 49 348 84 18 9 15 13 3 5 350 350 350 350 345 339 340 338 341 343 341 342 336 338 339 337 337 336 342 344 345 346 345 344 343 342 343 342 340 340 339 336 333 330 326 323 321 318 317 315 313 311 310 308 307 306
179 173 186 188 206 221 228 218 177 200 209 206 218 214 195 193 185 185 182 251 331 23 357 347 34 354 335 343 231 327 19 76 25 19 350 20 9 10 13 357 347 345 345 341 339 337 337 339 342 337 337 336 335 337 340 343 342 340 339 343 344 343 343 341 342 342 341 340 340 336 333 329 326 323 322 320 318 316 315 313 311 309 307 305 304
174 182 192 199 210 213 217 204 191 171 213 234 217 224 215 215 181 186 128 104 82 40 41 53 10 318 290 346 3 353 335 10 9 354 338 348 8 12 3 4 345 342 343 336 341 338 330 336 333 333 332 335 332 336 336 336 337 333 337 342 342 341 340 342 342 342 341 339 334 332 329 327 326 324 322 321 319 316 314 313 311 310 308 307 305
187 192 203 206 203 211 199 177 181 189 210 227 225 221 182 162 151 165 133 116 114 93 64 81 87 334 6 16 311 46 322 19 340 332 122 255 190 26 0 358 344 333 335 345 336 331 324 331 329 329 330 330 331 333 335 336 331 332 338 336 341 337 341 342 341 341 339 335 333 332 331 330 328 326 324 322 320 318 316 314 311 309 308 305 303
181 188 184 203 192 194 195 199 197 200 194 196 166 151 133 140 148 144 156 135 134 134 54 35 130 22 71 251 113 344 245 306 339 299 358 348 339 351 8 12 357 340 343 339 329 323 319 328 329 326 331 331 333 332 328 330 334 340 336 339 330 342 344 342 340 338 336 335 334 332 332 330 329 326 324 322 322 320 318 315 313 311 308 306 304
188 174 183 190 199 202 206 195 190 177 162 133 116 116 131 142 152 144 136 121 122 136 126 43 66 65 52 32 357 266 275 314 297 307 337 320 317 332 337 12 6 351 336 333 337 328 323 326 328 324 327 330 329 329 329 331 339 343 352 339 345 350 344 342 340 339 337 336 335 334 333 332 330 328 326 324 322 321 319 317 314 311 309 308 305
181 182 153 143 150 151 131 126 124 115 119 127 128 140 139 133 137 116 123 140 145 128 144 154 103 67 66 49 58 54 88 272 263 309 312 322 324 318 322 358 358 345 330 329 333 330 324 332 329 329 327 331 330 325 327 342 356 1 346 348 352 348 345 343 342 340 338 336 335 334 333 331 330 328 326 325 323 321 320 317 314 313 311 309 307
145 150 148 144 139 128 122 121 113 113 124 132 135 134 125 121 130 125 127 141 139 127 139 131 166 110 58 49 52 40 48 66 76 149 255 293 304 255 316 0 333 315 307 318 323 324 317 322 324 328 329 331 337 343 345 355 4 1 359 354 350 347 343 342 341 338 336 334 333 332 330 329 327 326 325 322 321 319 316 314 313 312 311 309 309
147 145 128 115 121 126 123 121 121 130 132 127 125 135 137 139 142 129 122 104 74 110 118 123 103 100 116 63 77 66 87 100 88 46 229 261 285 309 314 311 263 282 285 269 290 294 301 301 306 314 317 318 332 340 349 356 359 2 357 350 346 343 340 338 336 333 330 330 329 327 326 325 324 322 321 320 317 316 314 314 312 311 311 310 308
123 114 123 123 119 118 122 124 132 134 128 127 126 118 120 106 103 112 111 106 67 74 101 92 83 75 68 82 95 92 113 84 56 14 284 227 286 309 325 329 328 312 296 259 295 295 291 289 298 303 307 310 320 346 354 355 358 359 348 345 343 338 336 334 332 330 329 328 327 325 324 323 321 319 318 316 315 313 312 310 311 310 309 309 308
128 104 61 100 105 112 122 126 126 126 127 129 133 130 120 113 108 95 87 102 100 101 87 83 94 81 74 75 81 79 107 117 38 25 40 333 310 291 312 314 303 313 163 316 309 294 287 290 282 291 294 306 341 0 354 356 359 352 346 342 336 335 334 333 330 328 327 326 324 323 322 320 318 316 314 313 313 312 311 310 309 309 308 306 305
138 138 144 139 138 129 131 118 125 138 134 133 130 126 120 112 104 98 97 90 101 104 104 98 98 96 89 90 91 92 88 86 79 57 36 344 295 291 308 321 284 223 296 310 290 278 282 292 293 293 310 337 3 3 8 353 344 348 342 335 333 332 332 331 329 327 327 325 324 323 321 319 316 314 313 312 311 310 309 309 309 308 307 306 305
172 162 164 161 155 125 116 122 127 136 137 135 131 122 115 108 107 101 101 106 108 111 108 111 115 113 115 92 100 91 84 77 90 97 35 345 282 307 285 297 289 300 304 311 317 264 273 278 293 302 328 23 28 13 346 344 345 344 339 331 333 332 332 330 328 328 326 324 323 321 318 315 312 311 311 311 311 310 311 310 309 308 306 305 303
173 181 167 165 105 116 125 119 127 135 134 128 121 115 113 113 112 110 107 106 110 110 111 111 102 105 111 106 83 85 82 78 89 84 73 31 8 341 317 291 244 283 303 282 265 329 327 255 288 294 48 36 17 360 4 341 334 340 339 330 327 329 326 325 325 325 324 324 321 317 314 313 312 314 314 314 314 314 313 312 310 308 306 305 304
172 155 164 124 119 129 126 128 137 136 130 123 113 109 112 111 109 111 108 113 115 113 110 110 107 104 98 103 106 86 86 81 80 77 82 67 40 5 357 336 322 208 230 272 289 202 280 297 282 301 52 34 15 359 343 335 325 330 329 322 317 318 317 319 323 325 326 324 320 316 315 314 316 316 317 316 315 314 313 311 309 308 307 307 306
137 152 148 123 130 124 124 131 137 135 130 122 121 114 116 111 116 117 114 119 115 106 110 108 105 110 109 115 105 91 86 85 79 83 84 73 70 63 40 23 353 325 323 282 136 309 95 325 308 69 45 18 2 342 325 319 322 327 320 318 316 314 315 321 326 327 327 324 320 318 317 318 319 319 319 317 316 315 314 311 309 308 308 306 306
145 152 132 119 109 113 127 133 126 125 121 117 109 106 104 107 115 121 118 123 107 103 114 108 111 115 108 103 95 101 88 91 87 83 84 79 77 64 40 62 66 303 326 313 332 3 295 112 344 299 60 359 336 333 326 324 324 323 320 317 314 314 318 325 327 328 327 325 321 320 320 321 321 321 319 318 317 316 314 311 311 310 308 309 306
141 139 120 116 102 121 113 119 125 122 118 109 107 106 108 100 112 110 123 127 108 103 97 105 110 110 106 94 88 86 92 82 84 83 80 88 84 76 83 49 73 208 285 307 300 299 274 57 102 320 329 335 333 324 321 321 316 317 317 313 314 320 322 322 325 328 327 323 321 320 320 321 322 321 320 319 317 316 314 312 312 309 309 308 308
133 131 125 118 120 125 123 124 129 120 109 109 109 109 119 120 128 125 130 125 107 98 90 97 109 112 99 90 84 82 77 80 79 74 65 63 63 85 71 45 13 310 266 280 298 273 79 321 323 353 323 326 326 317 315 312 319 321 317 318 318 322 317 319 322 326 325 320 318 320 321 322 322 322 320 318 318 317 315 313 310 309 309 309 308
139 136 132 134 128 134 135 135 129 122 115 111 114 119 119 119 133 126 134 123 104 103 103 88 98 95 99 92 84 81 66 76 66 60 60 54 52 54 50 51 359 327 294 275 262 275 314 294 301 316 329 321 323 327 324 321 311 319 323 317 320 322 322 320 320 323 321 319 318 322 322 322 323 321 317 315 317 315 314 311 310 308 309 309 309
140 136 136 139 138 138 140 143 137 133 129 125 128 129 124 121 116 119 125 115 109 111 110 94 83 95 98 100 94 88 99 89 83 78 65 59 56 42 57 57 6 336 322 295 286 292 297 172 296 307 324 326 321 331 322 324 324 326 325 319 319 322 321 322 321 320 316 316 321 324 324 325 323 318 316 318 317 315 313 310 310 309 309 309 310
145 141 136 135 136 140 143 138 130 125 121 124 137 142 130 122 114 120 120 115 109 109 102 97 98 98 105 102 95 92 90 94 84 79 64 58 57 41 33 33 3 342 318 315 298 298 299 308 307 313 310 323 311 325 327 325 323 325 325 324 322 322 324 322 320 317 310 315 322 324 324 323 320 317 318 320 319 315 313 313 311 309 309 310 310
137 137 137 137 141 144 137 134 130 124 126 131 145 140 129 126 122 111 109 110 110 111 103 107 112 118 102 94 92 95 103 97 88 78 73 52 42 41 15 0 354 334 321 309 306 303 305 302 308 313 324 322 316 317 321 316 311 315 318 321 321 321 322 322 319 317 307 317 323 327 325 323 321 319 321 320 318 315 313 312 310 308 306 306 308
132 124 132 136 142 148 139 134 132 128 129 138 136 127 127 128 119 117 115 104 101 104 112 121 123 115 110 103 97 103 108 100 90 81 66 48 41 21 6 351 343 332 323 311 299 296 301 304 309 319 320 322 316 316 316 314 320 320 317 311 311 310 313 318 318 317 316 318 323 323 324 323 322 322 322 321 316 313 313 312 311 310 309 310 309
130 130 126 141 142 147 146 142 137 137 143 141 129 123 117 114 118 120 114 108 107 109 113 117 119 118 108 100 113 114 113 97 88 70 48 36 21 11 359 352 343 335 328 319 309 302 300 300 305 308 314 309 306 308 321 329 328 325 321 317 317 319 317 322 322 322 313 314 312 317 325 327 327 325 323 321 316 314 315 314 314 313 313 311 310
131 140 140 154 156 146 138 135 130 131 136 134 127 128 122 121 117 109 107 108 112 115 115 112 112 105 107 107 108 105 86 78 66 53 40 15 13 5 1 353 344 334 326 319 313 308 303 299 304 309 318 323 321 317 326 329 327 325 324 322 322 325 326 328 328 324 318 302 326 328 332 331 327 324 322 322 320 318 320 319 317 315 313 311 308
143 140 146 140 146 134 125 123 130 137 133 129 129 125 126 126 118 114 114 116 113 110 103 104 99 100 101 100 91 79 72 69 58 40 22 14 14 1 355 351 338 333 325 321 318 313 309 308 305 304 308 314 319 315 323 327 324 322 323 324 320 324 324 326 326 329 327 324 321 324 334 333 328 325 322 324 323 323 323 323 318 316 312 309 312
146 147 151 145 132 121 120 121 125 130 130 128 124 126 129 124 117 117 124 123 118 110 106 100 99 99 94 85 75 72 64 57 55 35 29 20 7 359 352 348 339 334 327 322 320 316 312 310 308 311 314 315 318 313 316 326 326 326 332 330 323 325 326 324 323 326 327 327 330 331 339 335 330 329 328 327 327 327 326 323 320 314 313 315 312
138 142 138 132 129 116 111 121 130 132 129 134 135 146 132 117 117 124 128 125 122 120 116 109 103 96 87 76 73 62 55 55 44 41 31 24 11 358 349 343 335 330 324 321 318 314 311 310 310 312 314 316 320 324 324 327 328 324 325 328 318 317 320 319 322 325 328 328 331 328 336 335 329 329 328 327 330 332 329 326 317 321 319 321 328
136 138 133 132 130 130 129 131 128 127 127 123 146 136 121 127 132 126 120 119 121 126 129 126 111 96 83 79 69 63 63 57 44 35 30 27 17 0 339 334 332 329 324 320 316 314 312 313 316 321 318 317 323 323 317 316 319 323 327 328 323 321 320 321 319 330 338 338 331 329 338 333 330 324 328 330 332 335 331 323 330 333 16 25 30
143 144 139 135 131 131 136 139 135 130 130 137 143 130 128 130 130 128 126 124 125 129 133 125 117 108 103 93 87 79 82 55 42 28 16 18 8 352 339 332 332 328 324 319 312 313 313 311 316 318 314 312 314 317 315 319 323 325 322 319 317 319 325 330 330 325 345 343 332 328 328 331 333 327 329 332 333 333 333 325 333 5 32 43 51
145 142 141 134 127 131 129 127 126 128 128 147 138 131 130 130 132 128 126 126 130 128 123 114 111 112 101 94 87 81 50 31 33 17 343 338 333 346 340 337 332 324 314 310 311 311 314 313 313 312 311 308 311 316 320 325 323 321 319 320 321 323 326 329 328 325 323 333 329 327 323 326 330 331 329 331 333 332 331 332 337 11 34 39 42
142 147 140 130 132 133 135 134 130 133 133 146 137 133 133 133 131 124 120 124 123 121 115 111 111 109 100 93 92 49 38 13 11 349 315 304 276 331 339 337 328 320 315 309 305 303 305 304 305 305 303 308 310 315 321 317 316 313 320 323 327 327 324 323 325 322 319 331 328 329 322 323 334 334 325 329 334 331 332 336 340 5 35 42 45
148 139 138 140 135 140 141 133 128 131 136 145 138 134 134 132 129 122 119 121 113 110 110 111 110 105 99 104 95 34 16 352 334 331 340 339 347 342 342 337 329 321 315 309 304 301 300 296 294 292 301 311 311 312 313 314 315 320 323 325 333 323 319 316 317 312 313 330 332 325 310 323 338 330 328 328 333 333 338 338 345 6 40 44 49
155 155 153 149 149 140 137 133 129 134 140 146 141 137 134 132 127 121 115 112 108 106 103 101 99 97 97 106 70 48 6 335 322 355 350 346 340 339 336 329 324 318 314 310 306 303 296 291 293 300 307 312 309 311 313 317 319 320 327 326 319 305 302 306 308 312 315 326 327 319 312 324 331 330 328 330 331 333 346 334 351 5 38 45 46
119 123 120 131 142 143 138 138 132 134 145 149 144 139 135 131 126 117 119 115 113 112 107 103 99 92 93 77 57 24 336 310 326 347 345 342 337 337 331 323 319 319 306 300 298 300 305 308 306 306 307 308 312 314 320 324 326 329 324 316 309 315 317 314 316 323 317 330 325 329 326 321 329 329 323 325 328 337 346 342 344 2 22 43 47
145 150 149 145 143 143 145 146 139 135 140 153 150 142 137 134 126 120 123 118 119 119 117 115 110 97 86 58 46 4 308 304 325 343 344 346 338 333 328 323 318 308 305 288 281 305 313 312 308 305 305 311 318 325 329 332 329 326 322 320 325 330 325 321 320 329 324 327 325 357 329 316 329 328 321 325 324 338 352 342 341 358 12 23 38
152 151 141 132 135 145 149 149 150 141 144 154 155 148 140 139 134 132 135 128 126 129 129 127 121 110 69 53 27 314 298 297 334 344 344 348 339 337 331 323 316 319 318 322 321 319 318 312 305 304 308 316 331 335 333 331 330 333 331 328 328 327 321 320 314 319 315 314 324 354 327 315 319 322 321 318 315 19 6 354 351 350 360 11 23
139 134 137 135 133 132 138 142 141 141 144 155 157 151 145 142 138 137 140 135 135 142 141 135 133 119 79 33 6 342 339 335 342 343 346 348 343 336 330 322 320 321 323 328 324 324 317 311 310 312 317 333 336 332 327 330 331 334 340 331 327 324 318 318 315 317 318 323 340 348 327 316 323 314 340 331 337 348 41 356 359 360 2 355 5